This is the latest recevied weather packets stored in our database for station/object K7PMV-13. If no packets are shown the sender has not sent any weather packets the latest 1 day(s).
| Time | Temp. | Humidity | Pressure | Rain* | Wind** | Luminosity | Snow |
|---|---|---|---|---|---|---|---|
| 1778030963 | 23.89° C | 27% | 1006.6 hPa | 0 mm | 0.89 m/s, 360° | 32 W/m² | - |
| 1778030643 | 23.89° C | 27% | 1006.6 hPa | 0 mm | 0.89 m/s, 360° | 30 W/m² | - |
| 1778030329 | 24.44° C | 26% | 1006.6 hPa | 0 mm | 1.34 m/s, 360° | 63 W/m² | - |
| 1778029967 | 24.44° C | 27% | 1006.5 hPa | 0 mm | 1.79 m/s, 360° | 40 W/m² | - |
| 1778029653 | 24.44° C | 27% | 1006.5 hPa | 0 mm | 1.34 m/s, 360° | 42 W/m² | - |
| 1778029338 | 24.44° C | 27% | 1006.4 hPa | 0 mm | 0.89 m/s, 360° | 39 W/m² | - |
| 1778029023 | 24.44° C | 26% | 1006.4 hPa | 0 mm | 5.81 m/s, 360° | 42 W/m² | - |
| 1778028705 | 24.44° C | 26% | 1006.3 hPa | 0 mm | 4.47 m/s, 360° | 188 W/m² | - |
| 1778028385 | 25° C | 27% | 1006.3 hPa | 0 mm | 2.24 m/s, 360° | 49 W/m² | - |
| 1778028071 | 25° C | 26% | 1006.2 hPa | 0 mm | 2.24 m/s, 360° | 104 W/m² | - |
| 1778027748 | 25° C | 26% | 1006.2 hPa | 0 mm | 1.79 m/s, 360° | 127 W/m² | - |
| 1778027433 | 25° C | 27% | 1006.1 hPa | 0 mm | 1.34 m/s, 360° | 272 W/m² | - |
| 1778027119 | 25° C | 27% | 1006 hPa | 0 mm | 2.24 m/s, 360° | 316 W/m² | - |
| 1778026790 | 25° C | 26% | 1006 hPa | 0 mm | 2.68 m/s, 360° | 339 W/m² | - |
| 1778026476 | 25° C | 26% | 1006 hPa | 0 mm | 1.79 m/s, 360° | 355 W/m² | - |
| 1778026161 | 25.56° C | 26% | 1006.1 hPa | 0 mm | 2.24 m/s, 360° | 364 W/m² | - |
| 1778025844 | 25.56° C | 27% | 1006 hPa | 0 mm | 2.24 m/s, 360° | 390 W/m² | - |
| 1778025530 | 25.56° C | 27% | 1006 hPa | 0 mm | 2.68 m/s, 360° | 394 W/m² | - |
| 1778025215 | 25.56° C | 27% | 1006 hPa | 0 mm | 1.79 m/s, 360° | 418 W/m² | - |
| 1778024900 | 25.56° C | 27% | 1005.9 hPa | 0 mm | 1.34 m/s, 360° | 443 W/m² | - |
| 1778024585 | 25.56° C | 26% | 1006 hPa | 0 mm | 1.34 m/s, 360° | 455 W/m² | - |
| 1778024271 | 25.56° C | 26% | 1006 hPa | 0 mm | 0.89 m/s, 360° | 468 W/m² | - |
| 1778023956 | 25.56° C | 26% | 1006 hPa | 0 mm | 2.24 m/s, 360° | 483 W/m² | - |
| 1778023642 | 25.56° C | 27% | 1005.8 hPa | 0 mm | 1.79 m/s, 360° | 503 W/m² | - |
| 1778023327 | 25.56° C | 27% | 1005.9 hPa | 0 mm | 2.68 m/s, 360° | 519 W/m² | - |
* Rain latest hour (hover to see other rain measurements)
** Current wind speed in m/s (hover to see current wind gust speed)